This is the latest recevied weather packets stored in our database for station/object KQ4NAL. If no packets are shown the sender has not sent any weather packets the latest 1 day(s).
| Time | Temp. | Humidity | Pressure | Rain* | Wind** | Luminosity | Snow |
|---|---|---|---|---|---|---|---|
| 1777988589 | 17.78° C | 77% | 1009.9 hPa | 0 mm | 1.79 m/s, 190° | 239 W/m² | - |
| 1777988286 | 17.78° C | 78% | 1010.1 hPa | 0 mm | 1.79 m/s, 135° | 227 W/m² | - |
| 1777987983 | 17.22° C | 79% | 1010.2 hPa | 0 mm | 0.89 m/s, 197° | 207 W/m² | - |
| 1777987678 | 17.78° C | 79% | 1010.3 hPa | 0 mm | 3.13 m/s, 211° | 154 W/m² | - |
| 1777987375 | 17.22° C | 79% | 1010.3 hPa | 0 mm | 2.24 m/s, 196° | 229 W/m² | - |
| 1777987073 | 17.22° C | 81% | 1010.2 hPa | 0 mm | 1.34 m/s, 191° | 217 W/m² | - |
| 1777986770 | 17.22° C | 81% | 1010.4 hPa | 0 mm | 1.34 m/s, 181° | 180 W/m² | - |
| 1777986468 | 17.22° C | 81% | 1010.6 hPa | 0 mm | 1.34 m/s, 168° | 173 W/m² | - |
| 1777986166 | 16.67° C | 81% | 1010.6 hPa | 0 mm | 1.34 m/s, 181° | 186 W/m² | - |
| 1777985862 | 16.67° C | 81% | 1010.6 hPa | 0 mm | 2.68 m/s, 240° | 147 W/m² | - |
| 1777985560 | 16.67° C | 82% | 1010.6 hPa | 0 mm | 0.89 m/s, 276° | 129 W/m² | - |
| 1777985256 | 16.67° C | 82% | 1010.5 hPa | 0 mm | 0.89 m/s, 20° | 153 W/m² | - |
| 1777984953 | 16.67° C | 83% | 1010.6 hPa | 0 mm | 0.45 m/s, 232° | 176 W/m² | - |
| 1777984649 | 16.67° C | 83% | 1010.4 hPa | 0 mm | 2.24 m/s, 250° | 182 W/m² | - |
| 1777984346 | 16.11° C | 85% | 1010.5 hPa | 0 mm | 1.34 m/s, 219° | 188 W/m² | - |
| 1777984042 | 16.11° C | 86% | 1010.3 hPa | 0 mm | 0 m/s | 184 W/m² | - |
| 1777983740 | 15.56° C | 87% | 1010.1 hPa | 0 mm | 1.79 m/s, 198° | 149 W/m² | - |
| 1777983436 | 15.56° C | 87% | 1010.3 hPa | 0 mm | 1.79 m/s, 202° | 100 W/m² | - |
| 1777983133 | 15.56° C | 87% | 1010.3 hPa | 0 mm | 2.24 m/s, 211° | 75 W/m² | - |
| 1777982829 | 15.56° C | 87% | 1010.7 hPa | 0 mm | 1.79 m/s, 238° | 62 W/m² | - |
| 1777982525 | 15.56° C | 87% | 1010.7 hPa | 0 mm | 1.34 m/s, 214° | 75 W/m² | - |
| 1777982219 | 15.56° C | 87% | 1010.7 hPa | 0 mm | 0.45 m/s, 273° | 83 W/m² | - |
| 1777981917 | 15.56° C | 88% | 1010.7 hPa | 0 mm | 1.79 m/s, 143° | 88 W/m² | - |
| 1777981614 | 15° C | 88% | 1010.6 hPa | 0 mm | 1.79 m/s, 203° | 76 W/m² | - |
| 1777981310 | 15° C | 88% | 1010.8 hPa | 0 mm | 1.34 m/s, 94° | 59 W/m² | - |
* Rain latest hour (hover to see other rain measurements)
** Current wind speed in m/s (hover to see current wind gust speed)